NS3L-13 Weather Reports


time (UTC)temp
C
wind
direction
speed
KPH
gust
KPH
rain 1hr
cm
rain 24hr
cm
rain mn
cm
humidity
%
barometer
mb
20260504050504 7 263 1.6 3.2 0.00 0.00 0.00 65 1014.3
20260504050004 7 263 1.6 4.8 0.00 0.00 0.00 65 1014.2
20260504045504 7 263 1.6 4.8 0.00 0.00 0.00 63 1014.2
20260504045004 7 263 1.6 4.8 0.00 0.00 0.00 62 1014.2
20260504044504 8 263 1.6 3.2 0.00 0.00 0.00 61 1014.2
20260504044005 8 263 3.2 4.8 0.00 0.00 0.00 60 1014.2
20260504043504 8 262 3.2 4.8 0.00 0.00 0.00 59 1014.2
20260504043004 8 260 1.6 4.8 0.00 0.00 0.00 58 1014.2
20260504042505 8 258 3.2 4.8 0.00 0.00 0.00 58 1014.2
20260504042004 8 259 3.2 9.7 0.00 0.00 0.00 58 1014.1
20260504041004 8 242 1.6 3.2 0.00 0.00 0.00 59 1014.0
20260504040505 8 243 1.6 1.6 0.00 0.00 0.00 58 1013.9
20260504035504 8 243 1.6 4.8 0.00 0.00 0.00 56 1013.8
20260504035004 9 242 1.6 3.2 0.00 0.00 0.00 56 1013.7
20260504034504 9 242 1.6 4.8 0.00 0.00 0.00 55 1013.7
20260504034005 9 242 1.6 4.8 0.00 0.00 0.00 55 1013.7
20260504033505 9 242 1.6 4.8 0.00 0.00 0.00 55 1013.7
20260504033006 9 242 0.0 3.2 0.00 0.00 0.00 54 1013.7
20260504032004 9 242 1.6 4.8 0.00 0.00 0.00 54 1013.6
20260504031504 10 242 0.0 4.8 0.00 0.00 0.00 53 1013.6
20260504031004 10 242 1.6 8.0 0.00 0.00 0.00 52 1013.5
20260504030504 10 250 1.6 3.2 0.00 0.00 0.00 52 1013.5
20260504030004 10 250 3.2 4.8 0.00 0.00 0.00 51 1013.4
20260504025504 10 240 1.6 4.8 0.00 0.00 0.00 50 1013.4
20260504025005 10 239 1.6 4.8 0.00 0.00 0.00 50 1013.5
20260504024004 10 239 1.6 4.8 0.00 0.00 0.00 49 1013.5
20260504023504 10 240 1.6 3.2 0.00 0.00 0.00 48 1013.6
20260504023004 11 240 1.6 4.8 0.00 0.00 0.00 47 1013.6
20260504022504 11 239 0.0 4.8 0.00 0.00 0.00 48 1013.6
20260504021504 11 239 3.2 4.8 0.00 0.00 0.00 47 1013.4
20260504021005 11 239 1.6 4.8 0.00 0.00 0.00 46 1013.4
20260504020504 11 238 1.6 8.0 0.00 0.00 0.00 46 1013.4
20260504020004 11 249 3.2 4.8 0.00 0.00 0.00 46 1013.4
20260504015504 11 250 1.6 4.8 0.00 0.00 0.00 46 1013.4
20260504015004 11 250 1.6 4.8 0.00 0.00 0.00 45 1013.4
20260504014505 11 250 1.6 4.8 0.00 0.00 0.00 45 1013.4
20260504013504 12 250 1.6 4.8 0.00 0.00 0.00 44 1013.3
20260504013004 12 251 3.2 4.8 0.00 0.00 0.00 43 1013.3
20260504012504 12 252 3.2 4.8 0.00 0.00 0.00 43 1013.3
20260504011503 12 254 4.8 9.7 0.00 0.00 0.00 43 1013.1
20260504011004 12 246 1.6 4.8 0.00 0.00 0.00 42 1013.1
20260504010504 12 243 3.2 8.0 0.00 0.00 0.00 42 1013.1
20260504010004 12 241 3.2 9.7 0.00 0.00 0.00 42 1013.1
20260504005504 12 248 3.2 8.0 0.00 0.00 0.00 42 1013.0
20260504005004 12 248 3.2 4.8 0.00 0.00 0.00 42 1012.9
20260504004504 12 253 3.2 4.8 0.00 0.00 0.00 41 1012.8
20260504004004 12 257 3.2 9.7 0.00 0.00 0.00 41 1012.7
20260504003504 13 248 1.6 8.0 0.00 0.00 0.00 41 1012.6
20260504003005 13 249 3.2 4.8 0.00 0.00 0.00 40 1012.6
20260504002504 13 282 3.2 9.7 0.00 0.00 0.00 39 1012.5
20260504002004 13 272 4.8 8.0 0.00 0.00 0.00 39 1012.4
20260504001504 13 250 1.6 4.8 0.00 0.00 0.00 39 1012.4
20260504001004 13 247 4.8 9.7 0.00 0.00 0.00 38 1012.4
20260504000505 13 265 3.2 9.7 0.00 0.00 0.00 38 1012.4
20260503235504 14 261 3.2 9.7 0.00 0.00 0.00 37 1012.3
20260503235004 14 258 3.2 11.3 0.00 0.00 0.00 37 1012.2
20260503234504 14 273 4.8 11.3 0.00 0.00 0.00 36 1012.1
20260503234005 14 279 9.7 19.3 0.00 0.00 0.00 36 1012.1
20260503233504 15 271 12.9 19.3 0.00 0.00 0.00 35 1012.0
20260503233004 15 260 6.4 14.5 0.00 0.00 0.00 35 1011.9
20260503232504 15 261 6.4 16.1 0.00 0.00 0.00 34 1011.9
20260503232004 15 261 9.7 16.1 0.00 0.00 0.00 34 1011.9
20260503231004 15 223 8.0 16.1 0.00 0.00 0.00 33 1011.9
20260503230504 15 262 8.0 25.7 0.00 0.00 0.00 34 1011.9
20260503230004 15 310 11.3 27.4 0.00 0.00 0.00 33 1011.9
20260503225507 15 256 14.5 22.5 0.00 0.00 0.00 33 1011.9
20260503225004 15 271 16.1 29.0 0.00 0.00 0.00 32 1011.8
20260503224004 15 265 12.9 22.5 0.00 0.00 0.00 32 1011.7
20260503223510 15 264 9.7 22.5 0.00 0.00 0.00 32 1011.8
20260503223015 16 286 11.3 24.1 0.00 0.00 0.00 32 1011.8
20260503222515 16 241 9.7 24.1 0.00 0.00 0.00 32 1011.8
20260503222004 15 291 11.3 19.3 0.00 0.00 0.00 33 1011.8
20260503221504 15 270 11.3 25.7 0.00 0.00 0.00 33 1011.8
20260503220504 15 255 9.7 22.5 0.00 0.00 0.00 32 1011.8
20260503215504 15 243 12.9 25.7 0.00 0.00 0.00 32 1011.9
20260503214004 15 282 12.9 27.4 0.00 0.00 0.00 32 1011.7
20260503213505 15 274 11.3 20.9 0.00 0.00 0.00 31 1011.7
20260503213005 15 281 9.7 20.9 0.00 0.00 0.00 32 1011.7
20260503212505 15 289 19.3 27.4 0.00 0.00 0.00 30 1011.6
20260503212004 15 279 12.9 29.0 0.00 0.00 0.00 31 1011.5
20260503211505 15 292 14.5 25.7 0.00 0.00 0.00 30 1011.6
20260503211004 15 283 16.1 24.1 0.00 0.00 0.00 31 1011.6
20260503210007 15 283 14.5 25.7 0.00 0.00 0.00 30 1011.7
20260503205503 15 257 16.1 29.0 0.00 0.00 0.00 31 1011.7
20260503204504 15 265 12.9 27.4 0.00 0.00 0.00 31 1011.7
20260503204004 15 316 11.3 25.7 0.00 0.00 0.00 32 1011.6
20260503203504 15 262 11.3 20.9 0.00 0.00 0.00 32 1011.7
20260503203004 15 266 11.3 19.3 0.00 0.00 0.00 31 1011.8
20260503202504 15 293 11.3 24.1 0.00 0.00 0.00 32 1011.9
20260503202005 15 293 19.3 29.0 0.00 0.00 0.00 31 1012.0
20260503201504 15 298 19.3 33.8 0.00 0.00 0.00 31 1011.9
20260503201005 15 281 19.3 32.2 0.00 0.00 0.00 32 1012.0
20260503200504 15 291 16.1 37.0 0.00 0.00 0.00 32 1012.0
20260503195504 15 262 17.7 32.2 0.00 0.00 0.00 32 1012.2
20260503195004 15 278 16.1 27.4 0.00 0.00 0.00 32 1012.2
20260503194504 14 302 16.1 32.2 0.00 0.00 0.00 32 1012.3
20260503194004 14 282 16.1 32.2 0.00 0.00 0.00 34 1012.3
20260503193503 14 300 20.9 37.0 0.00 0.00 0.00 33 1012.4
20260503192004 13 297 12.9 22.5 0.00 0.00 0.00 34 1012.6
20260503190505 14 264 27.4 41.8 0.00 0.00 0.00 32 1012.7
20260503190004 13 298 19.3 53.1 0.00 0.00 0.00 36 1012.6
20260503185504 13 297 17.7 40.2 0.00 0.00 0.00 35 1012.6
20260503185003 13 300 14.5 25.7 0.00 0.00 0.00 35 1012.8
20260503184503 13 292 19.3 37.0 0.00 0.00 0.00 33 1012.8
20260503184004 13 293 22.5 38.6 0.00 0.00 0.00 36 1012.8
20260503183504 13 297 16.1 32.2 0.00 0.00 0.00 33 1012.8
20260503183004 13 268 16.1 37.0 0.00 0.00 0.00 34 1012.9
20260503182505 13 286 16.1 33.8 0.00 0.00 0.00 34 1012.9
20260503182005 13 271 16.1 27.4 0.00 0.00 0.00 35 1012.9
20260503181505 13 279 16.1 35.4 0.00 0.00 0.00 35 1012.9
20260503181004 13 322 19.3 29.0 0.00 0.00 0.00 36 1013.0
20260503180503 13 276 19.3 38.6 0.00 0.00 0.00 35 1013.0
20260503180004 12 294 14.5 33.8 0.00 0.00 0.00 36 1013.0
20260503175504 12 293 19.3 35.4 0.00 0.00 0.00 35 1013.1
20260503175004 13 262 16.1 33.8 0.00 0.00 0.00 34 1013.1
20260503174503 13 287 19.3 29.0 0.00 0.00 0.00 33 1013.1
20260503174004 13 302 20.9 53.1 0.00 0.00 0.00 34 1013.1
20260503173504 13 296 11.3 22.5 0.00 0.00 0.00 35 1013.1
20260503173004 13 288 16.1 29.0 0.00 0.00 0.00 37 1013.2
20260503172504 12 299 19.3 32.2 0.00 0.00 0.00 34 1013.2
20260503172004 12 300 16.1 32.2 0.00 0.00 0.00 35 1013.2
20260503171504 12 312 14.5 37.0 0.00 0.00 0.00 35 1013.3
20260503171004 12 290 19.3 35.4 0.00 0.00 0.00 36 1013.3
20260503151004 9 296 11.3 22.5 0.00 0.00 0.00 49 1014.5
20260503150504 9 292 16.1 24.1 0.00 0.00 0.00 48 1014.4
20260503130511 7 316 20.9 32.2 0.00 0.00 0.00 54 1014.4
20260503110504 6 310 4.8 12.9 0.00 0.00 0.00 64 1014.0
20260503081504 7 309 9.7 19.3 0.00 0.00 0.00 58 1012.3
20260503081004 7 325 11.3 22.5 0.00 0.00 0.00 58 1012.2
20260503080504 7 303 16.1 22.5 0.00 0.00 0.00 58 1012.2
20260503072504 7 300 9.7 19.3 0.00 0.03 0.00 56 1012.0
20260503072004 7 306 14.5 20.9 0.00 0.03 0.00 56 1012.1
20260503071504 7 321 8.0 16.1 0.00 0.03 0.00 56 1012.1
20260503071004 7 323 4.8 12.9 0.00 0.03 0.00 56 1012.1
20260503070505 7 309 4.8 9.7 0.00 0.03 0.00 55 1012.0
20260503055004 8 309 6.4 12.9 0.00 0.05 0.00 59 1012.3
20260503054504 8 312 4.8 9.7 0.00 0.05 0.00 59 1012.3
20260503054004 8 320 4.8 8.0 0.00 0.05 0.00 59 1012.3
20260503053504 8 317 4.8 8.0 0.00 0.05 0.00 58 1012.3